Wind_Speed
64 65 65 65 65 65 65 65 65 63 62 64 66 69 71 71 72 73 73 73 73 73 72 72 71 71 70 71 71 70 70 70 69 69 68 67 64 62
64 64 64 65 65 65 64 64 64 64 63 63 66 67 69 69 69 69 68 67 65 63 61 60 60 60 61 62 63 63 64 65 66 67 68 68 66 64
64 64 64 63 63 63 63 64 64 65 64 63 65 65 66 66 65 64 61 58 54 52 51 51 50 50 50 51 52 53 54 56 58 61 64 66 67 66
63 62 62 62 62 62 63 63 63 63 63 62 60 60 59 58 56 52 49 46 44 43 42 41 41 41 41 41 41 43 46 47 50 53 57 61 64 66
60 60 60 60 61 61 62 62 62 61 60 58 55 53 51 48 44 41 39 37 36 35 34 33 34 34 34 34 34 35 37 40 42 46 50 54 59 62
58 58 58 59 60 60 60 59 58 56 55 53 49 45 40 38 36 33 32 32 32 31 30 29 29 28 28 29 29 30 31 33 35 38 43 47 52 57
57 58 58 58 58 57 56 54 53 51 47 43 38 34 32 31 30 30 29 29 30 30 27 26 26 25 26 25 25 26 27 29 31 33 37 41 46 52
56 56 56 55 54 53 51 49 46 42 37 32 28 27 27 28 28 28 28 27 27 27 26 25 25 24 23 22 22 22 23 25 27 30 32 36 40 45
52 51 50 50 49 46 43 40 36 32 27 23 22 24 25 26 26 26 27 27 26 26 25 24 24 22 20 19 19 19 19 21 23 26 29 32 36 40
48 46 44 42 39 36 32 29 26 23 21 21 22 23 24 24 25 26 26 25 25 25 23 21 21 19 18 17 16 15 16 18 20 22 25 28 32 37
42 40 37 33 29 25 22 20 19 18 19 20 21 22 24 24 25 24 23 22 22 21 20 18 17 15 15 14 13 13 13 14 16 19 22 25 29 34
35 32 27 23 19 17 14 13 14 15 17 19 21 22 23 23 22 21 20 19 18 17 16 15 14 12 11 11 10 10 10 11 13 16 19 22 26 30
27 23 18 14 12 10 10 10 12 14 16 18 20 21 21 21 20 19 18 17 17 16 15 13 11 10 8 8 7 7 8 8 10 12 16 20 23 27
18 14 10 8 7 8 9 10 12 14 16 18 19 20 20 19 19 18 17 18 17 16 15 13 11 9 7 6 5 6 6 6 7 10 13 16 20 25
9 6 5 5 6 8 9 11 13 14 16 18 19 19 19 19 20 20 19 19 18 18 16 14 11 8 6 4 3 2 3 4 5 8 11 14 18 22
2 3 4 5 7 8 9 11 13 15 16 18 19 20 20 21 21 21 21 21 20 19 18 15 12 10 6 4 3 1 2 4 5 7 10 13 17 20
4 5 5 6 7 8 10 11 13 15 17 18 19 20 21 22 23 22 23 22 22 22 20 18 16 13 10 8 6 5 5 6 7 9 11 13 15 18
6 6 6 7 8 9 11 12 14 16 17 18 19 20 21 23 23 24 25 25 24 24 22 21 20 18 16 13 12 11 10 10 10 11 12 13 15 18
7 7 7 8 9 10 12 13 15 17 17 18 19 20 22 23 24 25 26 27 27 26 25 23 23 21 20 17 16 15 15 14 14 14 14 15 16 18
8 8 8 9 10 11 12 14 16 17 19 19 20 20 22 23 25 26 26 27 28 28 27 25 24 23 22 21 19 18 19 19 18 17 17 17 18 19
9 9 9 10 11 12 13 15 17 18 19 20 21 22 22 24 25 26 27 27 28 29 28 26 26 26 25 23 22 21 21 22 22 21 20 20 19 19
10 10 11 11 11 12 14 16 17 18 20 21 22 23 24 24 25 26 27 27 27 28 28 28 27 27 26 24 23 22 22 23 23 23 23 23 22 21
10 11 11 11 12 13 15 16 18 19 20 21 22 22 23 24 25 26 26 27 27 27 28 28 28 27 26 24 23 23 23 22 22 21 22 23 23 22
Wind_Direction
294 294 294 294 294 294 293 293 293 292 290 290 289 288 288 288 288 287 287 287 286 285 283 281 280 277 275 272 268 265 261 257 253 250 247 245 243 241
294 294 294 295 295 295 295 295 295 294 293 292 291 289 289 289 290 290 290 289 288 286 285 283 280 278 275 272 268 264 260 256 251 247 243 241 239 237
295 295 295 295 295 296 296 296 296 296 295 294 293 292 292 292 292 292 292 291 289 288 286 284 281 279 277 273 268 263 259 255 251 246 241 238 235 232
295 295 296 296 296 297 297 297 297 296 296 295 295 294 294 294 294 295 295 294 293 291 289 286 284 281 279 276 270 264 259 255 250 246 241 237 233 231
296 296 297 297 298 298 298 298 297 297 298 298 297 297 296 296 296 297 298 297 296 294 293 290 287 284 281 278 273 266 261 255 251 246 240 235 232 230
297 298 298 298 299 299 298 298 298 299 299 299 300 299 297 297 299 300 300 300 299 298 296 293 290 287 284 280 274 267 260 254 249 244 239 234 231 228
299 299 299 300 300 299 299 299 299 299 300 300 300 299 299 300 302 303 303 302 301 300 300 297 293 289 285 282 278 269 261 254 248 243 239 234 229 227
299 299 300 300 300 300 301 301 301 302 302 301 301 300 302 303 304 305 306 305 305 304 302 299 295 292 288 284 278 270 262 254 246 241 236 232 228 225
299 299 300 301 302 302 302 302 303 304 305 305 305 306 307 307 308 309 308 308 307 305 304 300 295 292 289 285 278 270 262 254 245 239 234 230 226 222
299 301 302 303 304 303 303 304 305 308 310 311 312 314 314 314 314 313 312 310 309 308 307 303 298 293 287 282 278 272 263 254 244 236 231 226 223 220
302 304 306 306 305 305 305 306 309 313 316 319 320 321 321 321 320 319 318 316 315 313 311 308 304 298 289 283 278 273 264 253 242 233 227 223 220 218
306 308 309 308 307 308 311 314 319 322 325 327 328 329 330 331 331 331 329 328 326 324 322 318 313 307 297 288 279 271 264 251 238 230 224 220 217 214
308 310 312 313 316 322 326 328 330 332 334 335 338 340 341 342 342 344 344 345 344 341 337 333 328 320 309 296 284 269 262 250 234 225 220 216 213 211
310 313 318 328 336 339 339 340 343 345 347 347 350 352 353 354 356 358 357 355 354 353 351 347 343 336 328 312 291 271 257 241 228 218 213 208 206 205
314 326 344 354 354 352 352 355 358 359 358 358 1 4 6 7 7 7 6 5 4 4 4 2 358 351 345 340 321 275 238 220 208 200 197 196 196 196
358 26 22 14 6 3 6 9 10 9 7 8 11 12 14 14 14 14 14 15 16 16 15 14 13 11 9 13 26 88 153 165 171 172 177 181 184 187
77 59 41 27 18 19 22 23 19 16 15 15 16 17 19 20 22 24 24 25 26 26 27 30 32 37 46 56 69 88 106 121 135 147 155 163 170 175
78 60 46 36 31 35 36 31 26 22 21 21 23 25 26 27 29 32 32 33 33 34 36 38 41 49 59 69 80 89 96 105 117 129 137 147 156 161
72 59 51 45 45 48 43 37 31 29 29 29 30 31 32 33 35 36 37 38 40 41 44 47 49 55 63 72 81 90 95 100 106 117 124 131 140 148
70 62 57 56 58 55 48 42 38 36 36 36 36 37 38 38 39 39 40 42 44 47 49 51 55 61 68 75 81 89 94 98 100 105 112 120 128 137
70 66 65 67 67 61 55 50 46 44 43 43 43 44 44 44 43 43 44 45 47 50 52 55 60 65 70 74 80 87 94 99 102 103 106 110 117 125
71 71 72 72 73 68 62 57 53 50 49 49 50 50 49 48 48 48 48 49 50 53 56 60 63 66 70 75 80 85 90 96 102 105 108 110 113 118
76 79 78 76 77 73 67 63 59 56 54 54 54 54 54 53 52 52 52 53 54 57 59 61 64 68 71 75 79 83 88 93 97 103 108 110 113 117
Height
5714 5709 5703 5698 5692 5686 5680 5675 5672 5669 5666 5658 5648 5639 5630 5623 5617 5612 5606 5601 5596 5591 5587 5584 5581 5579 5577 5576 5577 5578 5581 5586 5591 5598 5606 5614 5622 5630
5698 5693 5687 5681 5675 5669 5663 5657 5651 5648 5646 5640 5630 5620 5612 5604 5598 5592 5586 5580 5575 5569 5565 5561 5558 5556 5554 5552 5552 5553 5556 5560 5566 5573 5581 5590 5600 5609
5682 5676 5671 5665 5658 5652 5646 5640 5634 5628 5625 5620 5610 5602 5594 5586 5580 5573 5567 5561 5556 5551 5546 5542 5539 5537 5534 5532 5532 5532 5535 5539 5544 5550 5558 5568 5578 5589
5666 5660 5654 5649 5642 5636 5630 5623 5617 5610 5606 5601 5594 5585 5577 5570 5564 5558 5552 5546 5541 5536 5531 5528 5524 5521 5519 5517 5516 5516 5518 5521 5526 5532 5539 5549 5559 5568
5651 5645 5639 5633 5627 5621 5614 5608 5601 5594 5588 5583 5577 5570 5563 5556 5551 5546 5540 5534 5529 5525 5521 5517 5513 5510 5507 5505 5504 5504 5505 5508 5512 5517 5522 5531 5540 5551
5636 5631 5625 5619 5613 5606 5600 5593 5586 5580 5573 5568 5563 5557 5551 5545 5540 5536 5531 5525 5520 5516 5512 5508 5504 5501 5498 5496 5495 5494 5495 5497 5500 5504 5509 5517 5526 5536
5622 5616 5610 5605 5599 5592 5586 5579 5573 5567 5561 5556 5551 5546 5541 5536 5532 5527 5523 5518 5513 5508 5504 5500 5496 5494 5491 5488 5487 5486 5486 5488 5490 5494 5499 5505 5513 5523
5609 5602 5596 5591 5585 5579 5572 5566 5561 5555 5551 5547 5542 5538 5534 5529 5525 5520 5515 5511 5506 5502 5497 5493 5489 5486 5484 5481 5480 5478 5478 5480 5482 5485 5490 5496 5503 5512
5597 5591 5584 5578 5573 5567 5561 5555 5551 5546 5543 5539 5536 5532 5528 5523 5519 5514 5509 5504 5499 5494 5490 5486 5482 5480 5477 5475 5474 5473 5472 5473 5475 5478 5482 5488 5495 5503
5585 5580 5574 5568 5562 5558 5553 5548 5544 5541 5537 5534 5530 5526 5522 5517 5512 5507 5502 5497 5492 5487 5483 5480 5476 5473 5471 5470 5468 5468 5467 5468 5469 5472 5476 5481 5487 5495
5574 5570 5565 5559 5555 5551 5547 5544 5540 5537 5534 5530 5526 5522 5517 5512 5507 5501 5496 5492 5487 5482 5478 5474 5471 5468 5466 5465 5464 5463 5463 5464 5465 5468 5471 5476 5481 5488
5565 5561 5557 5553 5549 5546 5544 5541 5538 5535 5532 5528 5523 5518 5513 5508 5502 5497 5492 5487 5482 5478 5474 5470 5467 5465 5463 5462 5461 5460 5460 5460 5462 5464 5467 5471 5476 5483
5558 5555 5552 5549 5546 5544 5542 5539 5537 5533 5530 5526 5521 5516 5510 5505 5500 5494 5489 5484 5479 5475 5471 5467 5464 5462 5460 5459 5458 5458 5458 5458 5459 5461 5464 5467 5472 5479
5553 5551 5549 5547 5545 5543 5541 5538 5536 5532 5528 5524 5519 5514 5509 5504 5499 5493 5488 5483 5478 5474 5469 5465 5462 5460 5458 5457 5456 5456 5456 5456 5457 5459 5461 5465 5469 5475
5550 5549 5548 5546 5545 5543 5541 5538 5535 5532 5528 5524 5519 5514 5509 5504 5499 5493 5488 5483 5478 5473 5468 5464 5461 5459 5457 5456 5455 5454 5455 5455 5456 5458 5460 5463 5467 5473
5549 5549 5548 5547 5545 5543 5541 5539 5536 5532 5528 5524 5519 5514 5509 5505 5499 5494 5489 5484 5479 5474 5469 5465 5461 5459 5457 5455 5455 5454 5455 5456 5457 5458 5461 5463 5467 5472
5549 5549 5548 5547 5546 5544 5542 5539 5536 5533 5529 5525 5520 5516 5511 5506 5501 5496 5491 5486 5480 5475 5471 5466 5463 5460 5458 5456 5456 5456 5456 5457 5459 5460 5462 5465 5468 5473
5550 5550 5550 5548 5547 5545 5543 5541 5538 5534 5531 5527 5522 5518 5514 5509 5504 5499 5494 5489 5484 5478 5474 5470 5466 5463 5461 5460 5459 5459 5460 5461 5462 5464 5466 5468 5472 5476
5552 5552 5551 5550 5548 5547 5545 5543 5540 5536 5533 5529 5525 5521 5517 5513 5508 5503 5499 5494 5489 5484 5479 5475 5472 5469 5467 5466 5465 5465 5465 5466 5468 5469 5471 5473 5476 5480
5554 5553 5553 5551 5550 5549 5547 5545 5542 5539 5536 5532 5528 5525 5521 5517 5513 5508 5504 5499 5495 5490 5486 5483 5479 5476 5474 5473 5473 5472 5472 5473 5475 5476 5478 5480 5483 5486
5556 5555 5555 5554 5553 5552 5550 5548 5545 5543 5539 5536 5532 5529 5525 5522 5518 5514 5510 5506 5502 5498 5494 5491 5487 5485 5483 5482 5482 5481 5480 5481 5482 5484 5486 5488 5491 5494
5558 5558 5557 5556 5556 5555 5553 5551 5549 5546 5543 5540 5537 5534 5531 5527 5524 5520 5517 5513 5510 5506 5503 5500 5496 5494 5493 5492 5492 5491 5490 5490 5491 5492 5494 5496 5499 5502
5561 5560 5560 5560 5559 5558 5557 5555 5553 5551 5548 5545 5542 5540 5536 5533 5530 5527 5524 5521 5517 5514 5511 5508 5506 5504 5503 5502 5501 5500 5500 5500 5501 5503 5504 5505 5507 5510